MST,Max TemperatureF,Mean TemperatureF,Min TemperatureF,Max Dew PointF,MeanDew PointF,Min DewpointF,Max Humidity, Mean Humidity, Min Humidity, Max Sea Level PressureIn, Mean Sea Level PressureIn, Min Sea Level PressureIn, Max VisibilityMiles, Mean VisibilityMiles, Min VisibilityMiles, Max Wind SpeedMPH, Mean Wind SpeedMPH, Max Gust SpeedMPH,PrecipitationIn, CloudCover, Events, WindDirDegrees
2011-11-1,69,54,39,35,30,26,76,49,22,29.90,29.78,29.72,,,,29,12,36,0.00,,,56
2011-11-2,41,32,23,35,29,21,92,84,76,30.49,30.23,29.75,,,,36,22,44,0.12,,,6
2011-11-3,56,38,19,27,21,14,92,59,26,30.48,30.27,30.01,,,,22,11,26,0.00,,,217
2011-11-4,75,53,31,26,22,20,63,39,14,29.97,29.83,29.67,,,,30,17,37,0.00,,,216
2011-11-5,66,48,30,28,22,8,52,32,12,29.64,29.48,29.32,,,,44,24,58,0.00,,,225
2011-11-6,53,38,22,26,19,14,81,52,22,29.99,29.88,29.64,,,,20,7,25,0.00,,,147
2011-11-7,52,39,25,42,35,21,100,77,54,29.99,29.92,29.87,,,,20,8,23,0.14,,,103
2011-11-8,39,31,23,37,30,20,100,91,81,30.34,30.08,29.87,,,,24,14,28,0.56,,,4
2011-11-9,38,30,21,29,21,16,88,76,63,30.54,30.47,30.34,,,,16,10,18,0.00,,,305
2011-11-10,53,39,24,32,25,18,81,61,41,30.43,30.25,29.99,,,,16,9,20,0.00,,,270
2011-11-11,59,46,33,34,26,13,65,40,15,29.98,29.84,29.58,,,,17,8,22,0.00,,,266
2011-11-12,69,54,38,32,27,22,64,41,17,29.60,29.53,29.43,,,,36,13,44,0.00,,,281
2011-11-13,56,46,35,34,31,28,70,53,35,29.59,29.51,29.43,,,,17,11,23,0.00,,,225
2011-11-14,60,47,34,32,28,23,75,50,25,29.78,29.71,29.62,,,,18,10,24,0.00,,,259
2011-11-15,61,45,29,26,22,16,69,43,17,29.91,29.79,29.67,,,,17,9,22,0.00,,,12
2011-11-16,44,33,21,24,19,14,85,61,36,30.41,30.21,29.93,,,,14,6,20,0.00,,,118
2011-11-17,61,42,22,23,18,14,77,47,17,30.35,30.03,29.74,,,,26,15,31,0.00,,,223
2011-11-18,70,50,30,23,19,11,69,40,10,29.70,29.57,29.37,,,,20,7,26,0.00,,,250
2011-11-19,54,39,24,26,22,17,88,58,27,30.06,29.74,29.38,,,,30,10,36,0.00,,,26
2011-11-20,45,34,23,24,22,21,96,69,41,30.19,30.10,30.02,,,,14,6,18,0.00,,,166
2011-11-21,45,37,28,37,28,25,92,73,53,30.08,30.00,29.90,,,,16,5,20,0.00,,,206
2011-11-22,62,48,33,32,26,20,92,56,19,30.17,30.09,29.99,,,,17,10,21,0.00,,,291
2011-11-23,69,51,32,26,22,17,64,39,14,30.22,30.11,29.97,,,,20,11,23,0.00,,,250
2011-11-24,73,54,35,22,17,9,48,29,9,29.96,29.84,29.70,,,,22,10,26,0.00,,,242
2011-11-25,61,49,36,37,29,12,92,55,18,29.86,29.71,29.61,,,,30,11,36,0.05,,,323
2011-11-26,42,33,23,31,13,7,79,51,23,30.51,30.33,29.91,,,,48,29,62,0.00,,,3
2011-11-27,56,40,23,20,13,5,69,43,16,30.46,30.33,30.14,,,,22,11,26,0.00,,,327
2011-11-28,73,51,28,22,17,10,69,39,9,30.23,30.09,29.96,,,,18,10,24,0.00,,,349
2011-11-29,49,38,27,26,24,22,78,57,36,30.35,30.26,30.13,,,,14,7,17,0.00,,,281
2011-11-30,73,50,26,25,19,0,75,40,5,30.10,29.80,29.60,,,,22,9,28,0.00,,,280